145P/Shoemaker-Levy 5 (2000)

Japanese version
Home page
Total 6,336 html files since Dec. 4, 1995
Updated on October 3, 2000

---------------------------------------------------------------------

* Profile

Designation 145P/2000 R1
Recovery Date September 6, 2000
Magnitude 18.5 mag
Recoverer Lincoln Laboratory Near-Earth Asteroid Research project

* Orbital Elements

                    Epoch = 2000 Aug.  4.0 TT
     T = 2000 Aug. 17.0846 TT         Peri. =   6.2331
     e = 0.529360                     Node  =  29.6904  2000.0
     q = 1.988623 AU                  Incl. =  11.7706
       a =  4.225360 AU    n = 0.1134772    P =   8.686 years

* Finding Charts

* Magnitudes Graph

        m1 = 10.5 + 5 log d + 15.0 log r

---------------------------------------------------------------------

The orbital elements are calculated by Dr. Green and printed on IAUC 7488.
The charts are made with StellaNavigator Ver.2.0 for Windows (AstroArts / ASCII).
The magnitudes graphs are made with Comet for Windows.

---------------------------------------------------------------------

Copyright(C) 1995-2008 Seiichi Yoshida (comet@aerith.net). All rights reserved.